User: anonymous   Login
Location: Broad Creek
(39.7000°N, 76.2570°W)
Time: 13:00:36
(UTC-04:00)
Language:

ATLAS 5 CENTAUR R/B - Orbit

View from above orbital plane
View from above orbital plane
View from above satellite
View from above satellite

Ground track
Ground track

The orbit data is extracted from the following two-line orbital elements,

1 31702U 07027B   15241.07956753 0.00000150  00000-0  59760-4 0    04
2 31702  63.3720 339.3855 0197000 355.4074   4.5926 14.18394759    04
Epoch (UTC): 29 August 2015 01:54:34
Eccentricity: 0.0197000
inclination: 63.3720°
perigee height: 689 km
apogee height: 973 km
right ascension of ascending node: 339.3855°
argument of perigee: 355.4074°
revolutions per day: 14.18394759
mean anomaly at epoch: 4.5926°
orbit number at epoch: 0

The dashed part of the orbit path shows where the satellite is in the earth's shadow,  

DLR